User: anonymous   Login
Location: Unspecified
(0.0000°N, 0.0000°E)
Time: 06:47:00
(UTC+01:00)
Language:

Meteor 1-10 Rocket - Orbit

View from above orbital plane
View from above orbital plane
View from above satellite
View from above satellite

Ground track
Ground track

The orbit data is extracted from the following two-line orbital elements,

1 05732U 71120B   17020.84181183  .00000111  00000-0  59210-4 0  9996
2 05732  81.2511 265.4675 0052027  97.3128 263.3958 14.05932461318236
Epoch (UTC): 20 January 2017 20:12:12
Eccentricity: 0.0052027
inclination: 81.2511°
perigee height: 835 km
apogee height: 911 km
right ascension of ascending node: 265.4675°
argument of perigee: 97.3128°
revolutions per day: 14.05932461
mean anomaly at epoch: 263.3958°
orbit number at epoch: 31823

The dashed part of the orbit path shows where the satellite is in the earth's shadow,  

DLR